Tiempo cada hora Allen Park

Hoy, 27 Julio, Martes

Tiempo Temperatura Precipitaciones Viento Presión Humedad
00:00 +24°C° 0 mm 2 mps 745 mmHg 64%
01:00 +24°C° 0 mm 2 mps 745 mmHg 65%
02:00 +23°C° 0 mm 2 mps 745 mmHg 65%
03:00 +23°C° 0 mm 2 mps 745 mmHg 66%
04:00 +23°C° 0 mm 2 mps 745 mmHg 66%
05:00 +23°C° 0 mm 2 mps 745 mmHg 67%
06:00 +24°C° 0 mm 2 mps 745 mmHg 68%
07:00 +26°C° 0 mm 3 mps 746 mmHg 63%
08:00 +28°C° 0 mm 3 mps 746 mmHg 58%
09:00 +30°C° 0 mm 4 mps 746 mmHg 53%
10:00 +30°C° 0 mm 4 mps 746 mmHg 52%
11:00 +32°C° 0 mm 4 mps 746 mmHg 50%
12:00 +33°C° 0 mm 4 mps 746 mmHg 49%
13:00 +33°C° 0 mm 4 mps 745 mmHg 49%
14:00 +33°C° 0 mm 5 mps 745 mmHg 50%
15:00 +33°C° 0 mm 5 mps 745 mmHg 50%
16:00 +32°C° 0 mm 4 mps 745 mmHg 55%
17:00 +30°C° 0 mm 4 mps 745 mmHg 61%
18:00 +29°C° 0 mm 3 mps 745 mmHg 66%
19:00 +28°C° 0 mm 3 mps 745 mmHg 70%
20:00 +27°C° 0 mm 3 mps 745 mmHg 73%
21:00 +26°C° 0 mm 2 mps 745 mmHg 77%
22:00 +25°C° 0 mm 2 mps 745 mmHg 80%
23:00 +25°C° 0 mm 2 mps 745 mmHg 82%

Mañana, 28 Julio, Miércoles

Tiempo Temperatura Precipitaciones Viento Presión Humedad
00:00 +24°C° 0 mm 2 mps 745 mmHg 85%
01:00 +24°C° 0.4 mm 2 mps 745 mmHg 88%
02:00 +23°C° 0.4 mm 2 mps 745 mmHg 91%
03:00 +21°C° 0.4 mm 2 mps 745 mmHg 93%
04:00 +23°C° 0.2 mm 1 mps 745 mmHg 92%
05:00 +23°C° 0.2 mm 1 mps 745 mmHg 91%
06:00 +23°C° 0.2 mm 1 mps 746 mmHg 91%
07:00 +24°C° 0 mm 1 mps 746 mmHg 84%
08:00 +26°C° 0 mm 1 mps 746 mmHg 77%
09:00 +27°C° 0 mm 1 mps 746 mmHg 70%
10:00 +28°C° 0 mm 1 mps 746 mmHg 64%
11:00 +30°C° 0 mm 1 mps 746 mmHg 58%
12:00 +31°C° 0 mm 2 mps 746 mmHg 52%
13:00 +30°C° 0 mm 2 mps 745 mmHg 53%
14:00 +30°C° 0 mm 2 mps 745 mmHg 54%
15:00 +30°C° 0 mm 2 mps 745 mmHg 55%
16:00 +29°C° 0.1 mm 2 mps 745 mmHg 61%
17:00 +28°C° 0.1 mm 2 mps 745 mmHg 67%
18:00 +27°C° 0.1 mm 2 mps 745 mmHg 73%
19:00 +26°C° 0 mm 2 mps 745 mmHg 77%
20:00 +25°C° 0 mm 2 mps 745 mmHg 82%
21:00 +24°C° 0 mm 1 mps 745 mmHg 86%
22:00 +24°C° 0 mm 2 mps 745 mmHg 86%
23:00 +24°C° 0 mm 2 mps 744 mmHg 87%

Pasado mañana, 29 Julio, Jueves

Tiempo Temperatura Precipitaciones Viento Presión Humedad
00:00 +24°C° 0 mm 2 mps 744 mmHg 87%
01:00 +23°C° 0.6 mm 2 mps 744 mmHg 89%
02:00 +23°C° 0.6 mm 2 mps 744 mmHg 90%
03:00 +22°C° 0.6 mm 3 mps 743 mmHg 92%
04:00 +22°C° 0.6 mm 3 mps 744 mmHg 91%
05:00 +22°C° 0.6 mm 4 mps 744 mmHg 91%
06:00 +22°C° 0.6 mm 4 mps 744 mmHg 91%
07:00 +22°C° 0.1 mm 4 mps 744 mmHg 89%
08:00 +22°C° 0.1 mm 3 mps 744 mmHg 88%
09:00 +22°C° 0.1 mm 3 mps 744 mmHg 87%
10:00 +25°C° 0 mm 3 mps 743 mmHg 79%
11:00 +27°C° 0 mm 3 mps 743 mmHg 70%
12:00 +29°C° 0 mm 3 mps 743 mmHg 61%
13:00 +28°C° 0.1 mm 3 mps 743 mmHg 66%
14:00 +27°C° 0.1 mm 2 mps 743 mmHg 71%
15:00 +26°C° 0.1 mm 2 mps 743 mmHg 76%
16:00 +26°C° 0.3 mm 2 mps 742 mmHg 80%
17:00 +25°C° 0.3 mm 2 mps 742 mmHg 83%
18:00 +24°C° 0.3 mm 1 mps 742 mmHg 87%
19:00 +24°C° 0.1 mm 2 mps 743 mmHg 88%
20:00 +24°C° 0.1 mm 2 mps 743 mmHg 90%
21:00 +24°C° 0.1 mm 2 mps 743 mmHg 91%
22:00 +23°C° 0 mm 2 mps 743 mmHg 92%
23:00 +23°C° 0 mm 2 mps 743 mmHg 92%

30 Julio, Viernes

Tiempo Temperatura Precipitaciones Viento Presión Humedad
00:00 +21°C° 0 mm 2 mps 743 mmHg 93%
01:00 +21°C° 0 mm 2 mps 744 mmHg 93%
02:00 +20°C° 0 mm 2 mps 744 mmHg 92%
03:00 +20°C° 0 mm 2 mps 744 mmHg 92%
04:00 +20°C° 0 mm 2 mps 745 mmHg 90%
05:00 +20°C° 0 mm 2 mps 745 mmHg 89%
06:00 +20°C° 0 mm 3 mps 745 mmHg 87%
07:00 +22°C° 0 mm 3 mps 745 mmHg 80%
08:00 +24°C° 0 mm 3 mps 746 mmHg 73%
09:00 +26°C° 0 mm 3 mps 746 mmHg 65%
10:00 +26°C° 0 mm 4 mps 746 mmHg 64%
11:00 +26°C° 0 mm 4 mps 746 mmHg 62%
12:00 +26°C° 0 mm 5 mps 746 mmHg 60%
13:00 +26°C° 0 mm 4 mps 746 mmHg 59%
14:00 +26°C° 0 mm 4 mps 746 mmHg 58%
15:00 +25°C° 0 mm 4 mps 746 mmHg 57%
16:00 +25°C° 0 mm 4 mps 746 mmHg 60%
17:00 +24°C° 0 mm 3 mps 746 mmHg 62%
18:00 +22°C° 0 mm 3 mps 746 mmHg 65%
19:00 +21°C° 0 mm 2 mps 746 mmHg 67%
20:00 +20°C° 0 mm 2 mps 746 mmHg 69%
21:00 +19°C° 0 mm 2 mps 747 mmHg 72%
22:00 +19°C° 0 mm 2 mps 746 mmHg 72%
23:00 +19°C° 0 mm 1 mps 746 mmHg 72%

31 Julio, Sábado

Tiempo Temperatura Precipitaciones Viento Presión Humedad
00:00 +19°C° 0 mm 1 mps 746 mmHg 72%
01:00 +19°C° 0 mm 1 mps 746 mmHg 74%
02:00 +19°C° 0 mm 1 mps 746 mmHg 76%
03:00 +17°C° 0 mm 2 mps 746 mmHg 78%
04:00 +18°C° 0 mm 2 mps 746 mmHg 79%
05:00 +18°C° 0 mm 3 mps 746 mmHg 80%
06:00 +19°C° 0 mm 3 mps 746 mmHg 81%
07:00 +21°C° 0 mm 3 mps 746 mmHg 74%
08:00 +23°C° 0 mm 4 mps 745 mmHg 66%
09:00 +26°C° 0 mm 4 mps 745 mmHg 58%
10:00 +27°C° 0 mm 4 mps 745 mmHg 56%
11:00 +28°C° 0 mm 5 mps 744 mmHg 55%
12:00 +29°C° 0 mm 5 mps 744 mmHg 53%
13:00 +29°C° 0 mm 5 mps 744 mmHg 56%
14:00 +29°C° 0 mm 5 mps 743 mmHg 59%
15:00 +29°C° 0 mm 6 mps 743 mmHg 62%
16:00 +27°C° 0.5 mm 5 mps 742 mmHg 69%
17:00 +26°C° 0.5 mm 5 mps 742 mmHg 75%
18:00 +25°C° 0.5 mm 5 mps 742 mmHg 82%
19:00 +23°C° 3.2 mm 4 mps 742 mmHg 85%
20:00 +23°C° 3.2 mm 4 mps 741 mmHg 88%
21:00 +22°C° 3.2 mm 4 mps 741 mmHg 91%
22:00 +21°C° 1.3 mm 4 mps 741 mmHg 92%
23:00 +21°C° 1.3 mm 4 mps 741 mmHg 93%

1 Agosto, Domingo

Tiempo Temperatura Precipitaciones Viento Presión Humedad
00:00 +20°C° 1.3 mm 4 mps 741 mmHg 94%
01:00 +19°C° 0 mm 4 mps 741 mmHg 91%
02:00 +18°C° 0 mm 4 mps 741 mmHg 88%
03:00 +17°C° 0 mm 4 mps 741 mmHg 85%
04:00 +15°C° 0 mm 4 mps 742 mmHg 82%
05:00 +15°C° 0 mm 5 mps 742 mmHg 78%
06:00 +14°C° 0 mm 6 mps 743 mmHg 75%
07:00 +15°C° 0 mm 6 mps 743 mmHg 68%
08:00 +17°C° 0 mm 6 mps 744 mmHg 61%
09:00 +19°C° 0 mm 6 mps 744 mmHg 54%
10:00 +20°C° 0 mm 6 mps 744 mmHg 53%
11:00 +20°C° 0 mm 6 mps 744 mmHg 51%
12:00 +21°C° 0 mm 6 mps 745 mmHg 50%
13:00 +21°C° 0 mm 6 mps 745 mmHg 51%
14:00 +20°C° 0 mm 5 mps 745 mmHg 53%
15:00 +20°C° 0 mm 5 mps 745 mmHg 54%
16:00 +20°C° 0 mm 5 mps 745 mmHg 56%
17:00 +19°C° 0 mm 4 mps 746 mmHg 58%
18:00 +19°C° 0 mm 3 mps 746 mmHg 59%
19:00 +18°C° 0 mm 3 mps 746 mmHg 62%
20:00 +17°C° 0 mm 2 mps 746 mmHg 65%
21:00 +16°C° 0 mm 2 mps 746 mmHg 68%
22:00 +16°C° 0 mm 2 mps 746 mmHg 69%
23:00 +15°C° 0 mm 2 mps 746 mmHg 71%
Mostrar más

Necesitamos Su Consentimiento

Meteoprog y nuestros Proveedores de Servicios pueden almacenar y acceder a sus datos personales como cookies, identificadores de dispositivo u otras tecnologías similares de su dispositivo y procesar dichos datos para personalizar contenido y anuncios, además de ofrecer funciones de redes sociales y analizar el tráfico.

  • Almacenar y/o acceder a información en su dispositivo

    Se puede almacenar o acceder a cookies, identificadores de dispositivo u otra información de su dispositivo para los fines anteriormente indicados.

  • Anuncios y contenido personalizados, medición de anuncios y contenido, percepciones del público, y desarrollo de productos

    Los anuncios y el contenido pueden personalizarse en base a su perfil. Se pueden añadir más datos para personalizar mejor los anuncios y contenidos. Se puede medir el rendimiento de los anuncios y contenidos. Se puede obtener la percepción sobre el público que ha visto los anuncios y contenidos. Dichos datos pueden usarse para desarrollar o mejorar la experiencia del usuario, sistemas y software.

Al hacer clic en ‘Estoy De Acuerdo’ usted permitirá el uso de las cookies, identificadores de dispositivo, balizas web u otras tecnologías similares indicadas. Su configuración puede cambiarse desde el navegador de su dispositivo.

Para ciertos fines, los intereses legítimos pueden ser considerados por encima del consentimiento. Puede leer más sobre ello en nuestra Política de Privacidad y Cookies.